User: anonymous   Login
Location: Phoenix
(33.4480°N, 112.0730°W)
Time: 04:32:11
(UTC-07:00)
Language:

Hubble Space Telescope - Orbit

View from above orbital plane
View from above orbital plane
View from above satellite
View from above satellite

Ground track
Ground track

The orbit data is extracted from the following two-line orbital elements,

1 20580U 90037B   18016.19446696  .00000480  00000-0  18484-4 0  9996
2 20580  28.4708  39.8065 0002470 308.8812 116.3776 15.08963414322481
Epoch (UTC): 16 January 2018 04:40:01
Eccentricity: 0.0002470
inclination: 28.4708°
perigee height: 537 km
apogee height: 541 km
right ascension of ascending node: 39.8065°
argument of perigee: 308.8812°
revolutions per day: 15.08963414
mean anomaly at epoch: 116.3776°
orbit number at epoch: 32248

The dashed part of the orbit path shows where the satellite is in the earth's shadow,  

DLR